FW3211 Weather Reports


Display with metric or nautical units.
time (UTC)temp
F
wind
direction
speed
MPH
gust
MPH
rain 1hr
in
rain 24hr
in
rain mn
in
humidity
%
barometer
mb
20260504045327 57 15 1.0 3.0 0.00 0.00 0.00 61 1019.5
20260504044826 57 15 1.0 3.0 0.00 0.00 0.00 59 1019.4
20260504044326 57 15 1.0 3.0 0.00 0.00 0.00 58 1019.4
20260504044113 57 15 1.0 2.0 0.00 0.00 0.00 56 1019.4
20260504043323 57 15 1.0 2.0 0.00 0.00 0.00 56 1019.4
20260504042825 58 15 1.0 2.0 0.00 0.00 0.00 52 1019.2
20260504042606 58 15 1.0 2.0 0.00 0.00 0.00 53 1019.2
20260504041823 58 15 1.0 3.0 0.00 0.00 0.00 53 1019.2
20260504041322 58 15 1.0 3.0 0.00 0.00 0.00 53 1019.1
20260504040823 58 15 1.0 3.0 0.00 0.00 0.00 52 1019.1
20260504040323 58 15 2.0 3.0 0.00 0.00 0.00 52 1019.2
20260504035821 58 15 2.0 3.0 0.00 0.00 0.00 53 1019.2
20260504035323 58 15 2.0 3.0 0.00 0.00 0.00 53 1019.1
20260504034823 58 15 2.0 3.0 0.00 0.00 0.00 52 1019.2
20260504034325 58 322 2.0 4.0 0.00 0.00 0.00 51 1019.1
20260504033820 58 321 2.0 4.0 0.00 0.00 0.00 51 1019.1
20260504033321 58 338 2.0 3.0 0.00 0.00 0.00 53 1019.1
20260504032821 58 338 2.0 3.0 0.00 0.00 0.00 52 1019.1
20260504032321 58 338 2.0 3.0 0.00 0.00 0.00 53 1019.2
20260504031821 58 325 2.0 3.0 0.00 0.00 0.00 53 1019.2
20260504031317 58 325 2.0 3.0 0.00 0.00 0.00 53 1019.2
20260504030815 58 324 2.0 3.0 0.00 0.00 0.00 53 1019.2
20260504030309 58 326 1.0 3.0 0.00 0.00 0.00 52 1019.2
20260504025806 58 322 1.0 3.0 0.00 0.00 0.00 53 1019.4
20260504025306 58 322 2.0 4.0 0.00 0.00 0.00 51 1019.4
20260504025101 58 322 2.0 4.0 0.00 0.00 0.00 52 1019.4
20260504024305 58 337 2.0 3.0 0.00 0.00 0.00 53 1019.4
20260504023804 58 336 2.0 3.0 0.00 0.00 0.00 54 1019.4
20260504023553 58 334 2.0 3.0 0.00 0.00 0.00 53 1019.4
20260504022806 58 334 2.0 3.0 0.00 0.00 0.00 54 1019.4
20260504022305 58 330 2.0 3.0 0.00 0.00 0.00 54 1019.5
20260504021805 58 328 2.0 3.0 0.00 0.00 0.00 54 1019.5
20260504021305 58 328 2.0 3.0 0.00 0.00 0.00 54 1019.5
20260504020806 58 328 2.0 3.0 0.00 0.00 0.00 54 1019.4
20260504020308 58 328 2.0 3.0 0.00 0.00 0.00 55 1019.4
20260504015812 58 326 2.0 3.0 0.00 0.00 0.00 55 1019.2
20260504015310 58 326 2.0 3.0 0.00 0.00 0.00 55 1019.2
20260504014805 57 327 2.0 3.0 0.00 0.00 0.00 56 1019.2
20260504014304 57 327 2.0 3.0 0.00 0.00 0.00 56 1019.2
20260504013805 57 327 2.0 3.0 0.00 0.00 0.00 56 1019.4
20260504013306 57 327 2.0 3.0 0.00 0.00 0.00 56 1019.2
20260504012804 57 327 2.0 3.0 0.00 0.00 0.00 56 1019.4
20260504012306 57 327 2.0 3.0 0.00 0.00 0.00 55 1019.4
20260504012118 57 327 2.0 3.0 0.00 0.00 0.00 55 1019.4
20260504011310 57 327 2.0 3.0 0.00 0.00 0.00 56 1019.5
20260504010805 57 324 2.0 3.0 0.00 0.00 0.00 57 1019.5
20260504010306 57 324 2.0 3.0 0.00 0.00 0.00 57 1019.5
20260504005808 57 322 2.0 3.0 0.00 0.00 0.00 58 1019.5
20260504005305 57 322 2.0 3.0 0.00 0.00 0.00 58 1019.5
20260504005046 57 318 2.0 3.0 0.00 0.00 0.00 58 1019.6
20260504004304 57 318 2.0 3.0 0.00 0.00 0.00 58 1019.6
20260504003803 57 314 2.0 3.0 0.00 0.00 0.00 58 1019.6
20260504003552 57 300 2.0 3.0 0.00 0.00 0.00 58 1019.6
20260504003055 57 300 2.0 3.0 0.00 0.00 0.00 58 1019.7
20260504002304 57 299 2.0 3.0 0.00 0.00 0.00 59 1019.6
20260504001803 57 299 2.0 3.0 0.00 0.00 0.00 59 1019.7
20260504001543 57 288 2.0 3.0 0.00 0.00 0.00 59 1019.7
20260504000804 57 288 2.0 3.0 0.00 0.00 0.00 60 1019.7
20260504000306 57 311 2.0 3.0 0.00 0.00 0.00 61 1019.7
20260503235804 57 312 2.0 3.0 0.00 0.00 0.00 61 1019.7
20260503235304 57 4 2.0 3.0 0.00 0.00 0.00 61 1019.7
20260503234803 57 4 2.0 3.0 0.00 0.00 0.00 61 1019.7
20260503234305 57 335 2.0 3.0 0.00 0.00 0.00 61 1019.8
20260503234120 57 334 2.0 3.0 0.00 0.00 0.00 60 1019.7
20260503233302 57 334 2.0 3.0 0.00 0.00 0.00 60 1019.8
20260503232801 57 4 2.0 3.0 0.00 0.00 0.00 59 1019.9
20260503232258 57 4 2.0 3.0 0.00 0.00 0.00 59 1020.0
20260503232050 57 4 2.0 3.0 0.00 0.00 0.00 59 1020.1
20260503231302 57 4 2.0 2.0 0.00 0.00 0.00 60 1020.1
20260503230759 56 4 1.0 2.0 0.00 0.00 0.00 60 1020.2
20260503230300 57 4 1.0 3.0 0.00 0.00 0.00 61 1020.2
20260503230120 56 4 1.0 3.0 0.00 0.00 0.00 60 1020.3
20260503225544 56 359 2.0 3.0 0.00 0.00 0.00 63 1020.2
20260503224758 56 359 2.0 3.0 0.00 0.00 0.00 63 1020.3
20260503224257 56 359 2.0 3.0 0.00 0.00 0.00 63 1020.3
20260503223754 56 359 1.0 2.0 0.00 0.00 0.00 63 1020.3
20260503223253 55 359 1.0 3.0 0.00 0.00 0.00 63 1020.4
20260503222751 55 359 1.0 3.0 0.00 0.00 0.00 63 1020.4
20260503222246 55 337 2.0 3.0 0.00 0.00 0.00 62 1020.4
20260503221746 55 336 2.0 3.0 0.00 0.00 0.00 64 1020.5
20260503221244 55 336 1.0 3.0 0.00 0.00 0.00 66 1020.5
20260503220743 55 305 1.0 2.0 0.00 0.00 0.00 69 1020.5
20260503220240 55 305 1.0 2.0 0.00 0.00 0.00 71 1020.4
20260503220057 55 305 1.0 2.0 0.00 0.00 0.00 71 1020.5
20260503215241 55 305 1.0 2.0 0.00 0.00 0.00 71 1020.4
20260503215027 55 305 1.0 2.0 0.00 0.00 0.00 70 1020.5
20260503214242 55 305 2.0 3.0 0.00 0.00 0.00 69 1020.5
20260503213752 55 305 2.0 4.0 0.00 0.00 0.00 69 1020.4
20260503213241 55 291 2.0 4.0 0.00 0.00 0.00 69 1020.5
20260503212736 55 304 2.0 4.0 0.00 0.00 0.00 69 1020.5
20260503212240 55 354 1.0 2.0 0.00 0.00 0.00 70 1020.4
20260503211739 54 354 1.0 3.0 0.00 0.00 0.00 72 1020.4
20260503210738 55 354 1.0 3.0 0.00 0.00 0.00 76 1020.4
20260503210240 55 345 1.0 3.0 0.00 0.00 0.00 76 1020.4
20260503205737 55 339 1.0 3.0 0.00 0.00 0.00 76 1020.3
20260503205524 55 330 2.0 3.0 0.00 0.00 0.00 75 1020.4
20260503204736 55 343 2.0 3.0 0.00 0.00 0.00 75 1020.3
20260503204236 55 326 2.0 3.0 0.00 0.00 0.00 74 1020.3
20260503203736 55 324 2.0 3.0 0.00 0.00 0.00 74 1020.3
20260503203238 55 324 2.0 3.0 0.00 0.00 0.00 74 1020.3
20260503202736 55 324 2.0 3.0 0.00 0.00 0.00 73 1020.3
20260503202235 56 324 1.0 2.0 0.00 0.00 0.00 73 1020.3
20260503201829 56 322 1.0 2.0 0.00 0.00 0.00 71 1020.2
20260503201816 56 324 1.0 2.0 0.00 0.00 0.00 72 1020.2
20260503200733 56 322 1.0 3.0 0.00 0.00 0.00 70 1020.2
20260503200236 56 322 2.0 3.0 0.00 0.00 0.00 69 1020.2
20260503200023 56 322 2.0 3.0 0.00 0.00 0.00 68 1020.2
20260503195231 56 322 2.0 3.0 0.00 0.00 0.00 68 1020.2
20260503194730 56 310 2.0 4.0 0.00 0.00 0.00 67 1020.2
20260503194228 56 342 2.0 4.0 0.00 0.00 0.00 66 1020.1
20260503194018 56 298 2.0 4.0 0.00 0.00 0.00 65 1020.1
20260503193226 56 293 2.0 4.0 0.00 0.00 0.00 66 1020.0
20260503192727 57 288 2.0 3.0 0.00 0.00 0.00 68 1020.0
20260503192225 57 337 2.0 3.0 0.00 0.00 0.00 67 1019.9
20260503192002 57 337 1.0 3.0 0.00 0.00 0.00 67 1019.9
20260503191220 57 337 1.0 3.0 0.00 0.00 0.00 66 1019.8
20260503190719 57 337 1.0 2.0 0.00 0.00 0.00 66 1019.8
20260503190217 57 332 1.0 3.0 0.00 0.00 0.00 65 1019.8
20260503185951 57 332 1.0 3.0 0.00 0.00 0.00 64 1019.7
20260503185217 57 332 2.0 3.0 0.00 0.00 0.00 63 1019.7
20260503184716 57 336 2.0 3.0 0.00 0.00 0.00 59 1019.8
20260503184500 57 336 2.0 3.0 0.00 0.00 0.00 55 1019.7
20260503183714 57 337 2.0 3.0 0.00 0.00 0.00 58 1019.7
20260503183215 57 337 2.0 3.0 0.00 0.00 0.00 59 1019.7
20260503182714 57 337 2.0 3.0 0.00 0.00 0.00 57 1019.7
20260503182213 57 310 1.0 3.0 0.00 0.00 0.00 57 1019.7
20260503181711 57 310 1.0 3.0 0.00 0.00 0.00 55 1019.7
20260503181209 57 292 1.0 2.0 0.00 0.00 0.00 57 1019.7
20260503180956 57 293 1.0 3.0 0.00 0.00 0.00 59 1019.7
20260503180206 58 299 1.0 3.0 0.00 0.00 0.00 63 1019.7
20260503175707 58 92 1.0 2.0 0.00 0.00 0.00 66 1019.7
20260503175205 58 92 1.0 2.0 0.00 0.00 0.00 63 1019.7
20260503174706 58 93 1.0 2.0 0.00 0.00 0.00 64 1019.7
20260503174449 58 95 1.0 2.0 0.00 0.00 0.00 67 1019.7
20260503173702 59 95 0.0 2.0 0.00 0.00 0.00 67 1019.8
20260503173205 59 95 0.0 2.0 0.00 0.00 0.00 66 1019.8
20260503172703 59 95 0.0 1.0 0.00 0.00 0.00 66 1019.8
20260503172210 59 95 0.0 1.0 0.00 0.00 0.00 66 1019.9
20260503171708 59 95 1.0 3.0 0.00 0.00 0.00 67 1019.9
20260503171205 59 95 1.0 4.0 0.00 0.00 0.00 67 1019.8
20260503170707 59 96 1.0 5.0 0.00 0.00 0.00 67 1019.9
20260503170207 59 112 1.0 5.0 0.00 0.00 0.00 66 1019.8
20260503160143 61 301 2.0 8.0 0.00 0.00 0.00 63 1019.7
20260503150634 64 266 1.0 2.0 0.00 0.00 0.00 65 1020.2
20260503150135 64 81 1.0 2.0 0.00 0.00 0.00 65 1020.2
20260503140135 63 181 2.0 4.0 0.00 0.00 0.00 61 1020.8
20260503131113 64 97 2.0 5.0 0.00 0.00 0.00 50 1021.7
20260503130615 64 160 2.0 7.0 0.00 0.00 0.00 55 1021.7
20260503130114 63 213 2.0 7.0 0.00 0.00 0.00 55 1021.7
20260503120105 64 152 3.0 10.0 0.00 0.00 0.00 63 1022.4
20260503110602 64 83 3.0 8.0 0.00 0.00 0.00 62 1022.2
20260503110116 63 181 3.0 8.0 0.00 0.00 0.00 65 1022.2
20260503100112 62 178 4.0 12.0 0.00 0.00 0.00 69 1022.3
20260503081546 64 114 3.0 7.0 0.00 0.00 0.00 54 1022.0
20260503081128 63 178 3.0 6.0 0.00 0.00 0.00 55 1022.0
20260503081110 64 67 2.0 4.0 0.00 0.00 0.00 56 1021.8
20260503072551 62 84 2.0 4.0 0.00 0.00 0.00 53 1021.8
20260503072046 61 126 2.0 4.0 0.00 0.00 0.00 51 1021.8
20260503071830 60 119 1.0 4.0 0.00 0.00 0.00 52 1021.8
20260503071047 60 129 2.0 3.0 0.00 0.00 0.00 53 1022.0
20260503070547 60 129 2.0 3.0 0.00 0.00 0.00 53 1022.0
20260503060312 60 85 2.0 4.0 0.00 0.00 0.00 48 1021.7
20260503055035 60 231 1.0 3.0 0.00 0.00 0.00 49 1021.7
20260503054536 60 231 1.0 3.0 0.00 0.00 0.00 48 1021.7
20260503054313 60 243 0.0 3.0 0.00 0.00 0.00 47 1021.6
20260503053528 61 271 1.0 4.0 0.00 0.00 0.00 51 1021.5
20260503053028 61 271 1.0 4.0 0.00 0.00 0.00 45 1021.5
20260503052817 61 266 1.0 4.0 0.00 0.00 0.00 44 1021.4
20260503052029 61 347 0.0 2.0 0.00 0.00 0.00 49 1021.3
20260503051521 60 347 0.0 1.0 0.00 0.00 0.00 52 1021.3
20260503051019 60 347 0.0 2.0 0.00 0.00 0.00 52 1021.3
20260503050524 59 347 1.0 2.0 0.00 0.00 0.00 53 1021.2
20260503050017 58 347 1.0 3.0 0.00 0.00 0.00 55 1021.1